Date String (YYYY-MM-DD hh:mm:ss) UTC,Instrument flags,Ambient pressure (hPa),Sample flow (lpm),Bypass flow (lpm),Sample temperature (°C),Ambient temperature (°C),ASC tube jacket temperature (°C),LED temperature (°C),Box temperature (°C),Sample RH (%),Span deviation,Mass concentration (μg/m³),Mass concentration (μg/m³),Mass concentration (μg/m³)
DateTimeUTC,F1_M11,P_M11,Q1_M11,Q2_M11,T1_M11,T2_M11,T3_M11,T4_M11,T5_M11,U1_M11,ZSPAN_M11,X0_M11,X2_M11,X1_M11
2021-09-08 12:00:00,,0832.1,5.00,0.00,29.9,28.7,00.0,39.0,31.6,19.2,0002.5,0055.52,0035.57,0032.83
2021-09-08 12:01:00,,0832.1,5.01,0.00,29.9,28.7,00.0,39.0,31.6,19.2,0002.6,0056.48,0035.39,0032.66
2021-09-08 12:02:00,,0832.1,5.00,0.00,29.9,28.8,00.0,39.0,31.6,19.1,0002.7,0057.35,0035.34,0032.58
2021-09-08 12:03:00,,0832.1,5.01,0.00,29.9,28.8,00.0,39.0,31.7,19.0,0002.5,0056.47,0035.31,0032.53
2021-09-08 12:04:00,,0832.1,5.01,0.00,29.9,28.9,00.0,39.0,31.7,19.0,0002.4,0056.51,0035.33,0032.56
2021-09-08 12:05:00,,0832.2,4.99,0.00,30.0,28.9,00.0,39.0,31.7,18.9,0002.2,0056.77,0035.42,0032.64
2021-09-08 12:06:00,,0832.1,5.00,0.00,30.0,28.9,00.0,39.1,31.7,18.8,0002.0,0056.49,0035.48,0032.67
2021-09-08 12:07:00,,0832.1,5.00,0.00,30.0,29.0,00.0,39.1,31.7,18.7,0002.2,0056.17,0035.46,0032.77
2021-09-08 12:08:00,,0832.1,5.00,0.00,30.0,29.0,00.0,39.1,31.8,18.7,0002.3,0055.59,0035.59,0032.88
2021-09-08 12:09:00,,0832.1,5.00,0.00,30.0,29.0,00.0,39.1,31.7,18.4,0002.2,0055.81,0035.82,0033.02
2021-09-08 12:10:00,,0832.1,5.00,0.00,30.0,29.1,00.0,39.1,31.8,18.3,0002.1,0055.65,0036.06,0033.18
2021-09-08 12:11:00,,0832.1,5.01,0.00,30.1,29.1,00.0,39.1,31.8,18.6,0002.2,0055.23,0036.09,0033.23
2021-09-08 12:12:00,,0832.1,4.99,0.00,30.1,29.1,00.0,39.1,31.9,18.8,0002.3,0054.66,0036.18,0033.31
2021-09-08 12:13:00,,0832.1,5.02,0.00,30.1,29.2,00.0,39.2,31.9,18.7,0002.3,0053.68,0036.31,0033.37
2021-09-08 12:14:00,,0832.1,5.00,0.00,30.1,29.2,00.0,39.2,31.9,18.7,0002.3,0053.03,0036.35,0033.42
2021-09-08 12:15:00,,0832.1,5.01,0.00,30.1,29.2,00.0,39.2,31.9,18.7,0002.3,0053.40,0036.43,0033.52
2021-09-08 12:16:00,,0832.2,5.00,0.00,30.1,29.2,00.0,39.2,31.9,18.7,0002.3,0053.15,0036.47,0033.57
2021-09-08 12:17:00,,0832.2,5.00,0.00,30.2,29.3,00.0,39.2,31.9,18.5,0002.4,0054.61,0036.61,0033.67
2021-09-08 12:18:00,,0832.2,5.00,0.00,30.2,29.3,00.0,39.2,32.0,18.5,0002.2,0054.50,0036.66,0033.72
2021-09-08 12:19:00,,0832.3,5.00,0.00,30.2,29.3,00.0,39.2,32.0,18.5,0002.1,0054.25,0036.71,0033.76
2021-09-08 12:20:00,,0832.3,4.99,0.00,30.2,29.3,00.0,39.3,32.0,18.5,0002.1,0054.39,0036.70,0033.76
2021-09-08 12:21:00,,0832.3,5.01,0.00,30.2,29.4,00.0,39.3,32.0,18.4,0002.2,0054.71,0036.64,0033.77
2021-09-08 12:22:00,,0832.2,4.99,0.00,30.2,29.4,00.0,39.3,32.0,18.3,0002.1,0054.93,0036.72,0033.87
2021-09-08 12:23:00,,0832.2,4.99,0.00,30.2,29.4,00.0,39.3,32.0,18.2,0002.0,0055.05,0036.73,0033.93
2021-09-08 12:24:00,,0832.4,5.00,0.00,30.3,29.4,00.0,39.3,32.0,18.1,0002.0,0054.95,0036.76,0034.01
2021-09-08 12:25:00,,0832.3,5.01,0.00,30.3,29.4,00.0,39.3,32.0,18.1,0002.2,0055.14,0036.80,0034.10
2021-09-08 12:26:00,,0832.3,5.01,0.00,30.3,29.5,00.0,39.4,32.0,18.0,0002.3,0055.07,0036.84,0034.17
2021-09-08 12:27:00,,0832.3,4.99,0.00,30.3,29.5,00.0,39.4,32.0,17.9,0002.4,0055.04,0037.00,0034.31
2021-09-08 12:28:00,,0832.4,4.99,0.00,30.3,29.5,00.0,39.4,32.1,17.9,0002.5,0054.23,0037.06,0034.40
2021-09-08 12:29:00,,0832.5,5.00,0.00,30.3,29.5,00.0,39.4,32.1,18.0,0002.4,0054.77,0037.15,0034.48
2021-09-08 12:30:00,,0832.5,5.00,0.00,30.3,29.5,00.0,39.4,32.1,18.1,0002.5,0055.02,0037.20,0034.55
2021-09-08 12:31:00,,0832.5,5.00,0.00,30.4,29.5,00.0,39.4,32.1,18.0,0002.6,0055.23,0037.24,0034.63
2021-09-08 12:32:00,,0832.5,4.99,0.00,30.4,29.5,00.0,39.4,32.1,18.0,0002.5,0055.34,0037.31,0034.66
2021-09-08 12:33:00,,0832.6,5.01,0.00,30.4,29.6,00.0,39.5,32.1,17.6,0002.6,0054.97,0037.41,0034.74
2021-09-08 12:34:00,,0832.6,5.00,0.00,30.4,29.6,00.0,39.5,32.1,17.6,0002.6,0054.90,0037.48,0034.78
2021-09-08 12:35:00,,0832.6,5.02,0.00,30.4,29.6,00.0,39.5,32.2,17.6,0002.5,0055.59,0037.55,0034.81
2021-09-08 12:36:00,,0832.6,4.99,0.00,30.4,29.6,00.0,39.5,32.2,17.5,0002.4,0055.71,0037.57,0034.85
2021-09-08 12:37:00,,0832.6,5.00,0.00,30.4,29.6,00.0,39.5,32.2,17.5,0002.3,0055.43,0037.55,0034.83
2021-09-08 12:38:00,,0832.6,5.00,0.00,30.4,29.6,00.0,39.5,32.2,17.5,0002.2,0055.66,0037.49,0034.77
2021-09-08 12:39:00,,0832.6,5.00,0.00,30.4,29.6,00.0,39.5,32.2,17.5,0002.3,0055.51,0037.43,0034.73
2021-09-08 12:40:00,,0832.6,4.99,0.00,30.4,29.7,00.0,39.6,32.2,17.5,0002.4,0055.22,0037.46,0034.73
2021-09-08 12:41:00,,0832.7,5.00,0.00,30.5,29.7,00.0,39.6,32.2,17.7,0002.4,0054.88,0037.43,0034.73
2021-09-08 12:42:00,,0832.7,4.99,0.00,30.5,29.7,00.0,39.6,32.2,17.6,0002.5,0054.64,0037.41,0034.71
2021-09-08 12:43:00,,0832.7,5.01,0.00,30.5,29.7,00.0,39.6,32.2,17.8,0002.5,0054.59,0037.40,0034.71
2021-09-08 12:44:00,,0832.7,5.00,0.00,30.5,29.7,00.0,39.6,32.2,17.9,0002.5,0054.53,0037.35,0034.63
2021-09-08 12:45:00,,0832.7,4.99,0.00,30.5,29.6,00.0,39.6,32.2,18.0,0002.5,0054.32,0037.37,0034.59
2021-09-08 12:46:00,,0832.7,5.01,0.00,30.4,28.0,00.0,39.6,31.8,18.0,0002.5,0054.02,0037.34,0034.55
2021-09-08 12:47:00,,0832.7,5.00,0.00,30.2,26.6,00.0,39.5,31.4,18.0,0002.3,0054.84,0037.32,0034.48
2021-09-08 12:48:00,,0832.7,5.00,0.00,30.1,26.6,00.0,39.5,31.4,17.9,0002.4,0055.01,0037.36,0034.48
2021-09-08 12:49:00,,0832.8,5.01,0.00,30.0,27.0,00.0,39.4,31.4,18.1,0002.3,0054.56,0037.29,0034.51
2021-09-08 12:50:00,,0832.8,5.00,0.00,30.0,27.4,00.0,39.4,31.4,18.0,0002.2,0053.99,0037.23,0034.51
2021-09-08 12:51:00,,0832.8,4.98,0.00,29.9,27.7,00.0,39.3,31.5,17.9,0002.1,0053.45,0037.20,0034.50
2021-09-08 12:52:00,,0832.8,5.00,0.00,30.0,28.0,00.0,39.3,31.5,17.9,0001.9,0053.50,0037.27,0034.54
2021-09-08 12:53:00,,0832.7,5.01,0.00,30.0,28.2,00.0,39.3,31.6,17.7,0001.8,0053.91,0037.33,0034.53
2021-09-08 12:54:00,,0832.8,4.99,0.00,30.0,28.4,00.0,39.3,31.6,17.6,0001.8,0054.59,0037.32,0034.52
2021-09-08 12:55:00,,0832.8,5.00,0.00,30.0,28.5,00.0,39.3,31.6,17.7,0001.8,0054.60,0037.26,0034.51
2021-09-08 12:56:00,,0832.8,5.00,0.00,30.0,28.6,00.0,39.2,31.7,17.7,0001.9,0055.26,0037.24,0034.55
2021-09-08 12:57:00,,0832.8,5.01,0.00,30.0,28.7,00.0,39.2,31.7,17.8,0002.0,0055.19,0037.28,0034.63
2021-09-08 12:58:00,,0832.8,4.98,0.00,30.0,28.8,00.0,39.2,31.7,17.6,0001.9,0053.82,0037.27,0034.66
2021-09-08 12:59:00,,0832.9,5.01,0.00,30.0,28.8,00.0,39.2,31.7,17.5,0001.7,0053.41,0037.29,0034.72
